Regional Weather Roundup
Issued by NWS

Home | Current Version | Previous Version | Text Only | Print | Product List | Glossary Off
Versions: 1 2 3 4 5 6 7 8 9 10 11 12 13 14 15 16 17 18 19 20 21 22 23 24 25 26 27 28 29 30 31 32 33 34 35 36 37 38 39 40 41 42 43 44 45 46 47 48 49 50

000
ASUS43 KFSD 291810
RWRSD

WEATHER ROUNDUP FOR SOUTH DAKOTA
NATIONAL WEATHER SERVICE SIOUX FALLS SD
100 PM CDT TUE JUL 29 2014

NOTE: "FAIR" INDICATES FEW OR NO CLOUDS BELOW 12,000 FEET WITH NO
SIGNIFICANT WEATHER AND/OR OBSTRUCTIONS TO VISIBILITY.


SDZ001>005-009-010-012>017-291900-
NORTHWEST AND NORTH CENTRAL SOUTH DAKOTA

CITY           SKY/WX    TMP DP  RH WIND       PRES   REMARKS
BUFFALO          N/A     79  52  38 S8        30.17F
FAITH            N/A     77  52  41 S7        30.23F
MOBRIDGE       SUNNY     77  54  44 VRB5      30.20S
$$

SDZ012>016-024>037-041>051-057-063-072>074-291900-
SOUTHWEST AND SOUTH CENTRAL SOUTH DAKOTA

CITY           SKY/WX    TMP DP  RH WIND       PRES   REMARKS
RAPID CTY ARPT CLOUDY    66  56  70 S3        30.27S
PIERRE         PTSUNNY   78  50  37 VRB3      30.19F
CUSTER         CLOUDY    62  54  74 VRB3      30.37S
ELLSWORTH AFB  CLOUDY    67  56  65 S6        30.27S
PHILIP         CLOUDY    77  49  37 VRB5      30.22F
PINE RIDGE     CLOUDY    69  59  70 NE3       30.26R
WINNER         FAIR      77  50  38 VRB3      30.22F
$$

SDZ004>011-016>023-039-040-291900-
NORTHEAST SOUTH DAKOTA

CITY           SKY/WX    TMP DP  RH WIND       PRES   REMARKS
ABERDEEN       MOSUNNY   73  50  44 MISG      30.19F
WATERTOWN      MOSUNNY   71  52  50 NW12      30.21F
SISSETON         N/A     75  54  47 N10       30.18F
$$

SDZ017-020-022-023-036>040-048>070-291900-
SOUTHEAST SOUTH DAKOTA

CITY           SKY/WX    TMP DP  RH WIND       PRES   REMARKS
SIOUX FALLS    PTSUNNY   73  53  49 NW8       30.21F
HURON          PTSUNNY   75  52  44 MISG      30.20F
CHAMBERLAIN    PTSUNNY   74  53  47 E3        30.22S
MITCHELL       PTSUNNY   74  52  46 NW3       30.21F
YANKTON        PTSUNNY   72  54  53 CALM      30.22F
$$

ABBREVIATIONS USED IN REMARKS
   TC - TEMPERATURE IN CELSIUS
  WCI - WIND CHILL INDEX
   HX - HEAT INDEX
  VSB - VISIBILITY



USA.gov is the U.S. government's official web portal to all federal, state and local government web resources and services.